Regional Weather Roundup
Issued by NWS

Current Version | Previous Version | Text Only | Print | Product List | Glossary On
Versions: 1 2 3 4 5 6 7 8 9 10 11 12 13 14 15 16 17 18 19 20 21 22 23 24 25 26 27 28 29 30 31 32 33 34 35 36 37 38 39 40 41 42 43 44 45 46 47 48 49
000
ASUS44 KBMX 261510
RWRAL

ALABAMA REGIONAL WEATHER ROUNDUP
NATIONAL WEATHER SERVICE BIRMINGHAM AL
1000 AM CDT TUE MAY 26 2015

NOTE: "FAIR" INDICATES FEW OR NO CLOUDS BELOW 12,000 FEET
WITH NO SIGNIFICANT WEATHER AND/OR OBSTRUCTIONS TO VISIBILITY.

THE REMARK "TC" DENOTES TEMPERATURE IN DEGREES CELSIUS.

ALZ001>011-014-016>018-020-261600-
NORTH ALABAMA

CITY           SKY/WX    TMP DP  RH WIND       PRES   REMARKS
MUSCLE SHOALS  CLOUDY    73  68  84 SE10      30.10F
HUNTSVILLE     PTSUNNY   79  69  71 S17G25    30.14S
DECATUR        CLOUDY    76  70  82 S15G22    30.13F
HALEYVILLE     RAIN      68  68 100 SE9       30.16S FOG
GADSDEN        CLOUDY   N/A N/A N/A S13G20    30.16S
$$

ALZ012-013-022-023-030>036-040>044-261600-
WEST CENTRAL ALABAMA

CITY           SKY/WX    TMP DP  RH WIND       PRES   REMARKS
TUSCALOOSA     LGT RAIN  73  70  90 SE10      30.14S FOG
$$

ALZ015-024>027-033>036-040>044-261600-
CENTRAL ALABAMA

CITY           SKY/WX    TMP DP  RH WIND       PRES   REMARKS
BIRMINGHAM     CLOUDY    75  69  81 S13       30.19S
MONTGOMERY     PTSUNNY   77  70  79 VRB7      30.17F
SHELBY CO ARPT CLOUDY    75  70  84 S7        30.18S
MAXWELL AFB    PTSUNNY   77  71  84 S6        30.17R
GREENVILLE     PTSUNNY   80  72  76 S9        30.16S
$$

ALZ019-021-028-029-037-038-045>048-261600-
EAST CENTRAL ALABAMA

CITY           SKY/WX    TMP DP  RH WIND       PRES   REMARKS
ANNISTON       CLOUDY    79  67  66 S8G18     30.19S
ALEXANDER CITY PTSUNNY   77  67  72 SE9       30.20S
AUBURN         MOSUNNY   77  66  69 S9G17     30.21S
$$

ALZ051>064-261600-
SOUTHWEST ALABAMA

CITY           SKY/WX    TMP DP  RH WIND       PRES   REMARKS
MOBILE         CLOUDY    68  66  93 NE10      30.15F
BROOKLEY FIELD CLOUDY    70  67  90 NW13      30.16F
EVERGREEN      CLOUDY    80  74  81 S8          N/A
$$

ALZ049-050-065>069-261600-
SOUTHEAST ALABAMA

CITY           SKY/WX    TMP DP  RH WIND       PRES   REMARKS
DOTHAN         CLOUDY    81  74  79 SE9       30.21S
OZARK          PTSUNNY   83  74  74 VRB6      30.17R
TROY           PTSUNNY   81  72  74 S12       30.18S
EUFAULA        CLOUDY    82  74  76 SE8       30.19R
$$


USA.gov is the U.S. government's official web portal to all federal, state and local government web resources and services.